Weather in Zavodskaya Sloboda

Belarus     53°47′00″N   30°00′48″E
temp.,
°C
wind,
m/s
gust,
m/s
humid.,
%
clouds,
%
prec.,
mm/h
press.,
hPa
HPBL,
m
26 september, sun
sun2600:00+10wnw613935 0.1 1010465
03:00+9wnw5129533 0.1 1012440
06:00+8nw6109499 0.0 1014435
09:00+9nw7128584 0.0 1015647
12:00+13nw7116924 0.0 10171227
15:00+13nnw6105983 0.1 10181656
18:00+11n710754 0.0 1020778
21:00+7nnw512862 0.0 1022387
27 september, mon
mon2700:00+6nnw411915 0.0 1023245
03:00+5nnw49960 0.0 1024228
06:00+5nnw369676 0.0 1025124
09:00+8n4783100 0.0 1025265
12:00+10nne4675100 0.0 1026572
15:00+12nne4564100 0.0 10251228
18:00+11n377682 0.0 1026218
21:00+7nne35895 0.0 102678
28 september, tue
tue2800:00+6nne35927 0.0 102787
03:00+8nne3588100 0.0 1027103
06:00+8nne3689100 0.0 1027172
09:00+9ne388699 0.0 1028365
12:00+11ene567299 0.0 1029708
15:00+13ene456176 0.1 10281301
18:00+10ene4778100 0.1 1030463
21:00+8e4785100 0.1 1031414
29 september, wed
wed2900:00+7ese378490 0.0 1033404
03:00+6ese359060 0.0 1034191
06:00+5ese2386100 0.0 103494
09:00+7e3578100 0.0 1035273
12:00+10ese455650 0.0 10351329
15:00+11se445116 0.0 10341369
18:00+9ese33665 0.0 103451
21:00+6ese337514 0.0 103543
30 september, thu
thu3000:00+5se227916 0.0 103523
03:00+4se228323 0.0 103522
06:00+3ese228731 0.0 103626
09:00+5se35765 0.0 1036178
12:00+10se45585 0.0 1036763
15:00+12sse45505 0.0 10351097
18:00+9se33655 0.0 103443
21:00+6se33765 0.0 103533